Retour au catalogue

CZ-4C DEB

ActifLEO
NORAD 36418·DEBRIS·🇨🇳 China

Lancé Mar 5, 2010 depuis Jiuquan Satellite Launch Center

Loading…

Prochains Passages (prochaines 24 heures)

TLE

FraisSource: Space-Track

Époque: Sep 14, 2026, 22:47 UTC

1 36418U 10009F   26257.94959295  .00000202  00000-0  20038-3 0  9996
2 36418  63.3642 132.7817 0539778  21.1330   4.2063 13.46451719811800

Suivez CZ-4C DEB en temps réel avec AllMySat

Download on the App Store